• In Netherlands
  • List of Countries
  • For 7 days
  • Water Temperature
  • Satellite Maps
  • Weather Map
  • Weather Widgets
  • user-avatar
    Login

    Hourly Weather Natitingou

    Today, 24 February, Friday

    Time Temperature Precipitation Wind Pressure Humidity
    00:00 +24°C° 0 mm 1 mps 716 mmHg 22%
    01:00 +24°C° 0 mm 1 mps 716 mmHg 22%
    02:00 +24°C° 0 mm 1 mps 715 mmHg 21%
    03:00 +24°C° 0 mm 2 mps 715 mmHg 21%
    04:00 +23°C° 0 mm 2 mps 715 mmHg 22%
    05:00 +21°C° 0 mm 2 mps 716 mmHg 22%
    06:00 +21°C° 0 mm 2 mps 716 mmHg 23%
    07:00 +25°C° 0 mm 2 mps 716 mmHg 20%
    08:00 +29°C° 0 mm 2 mps 717 mmHg 17%
    09:00 +32°C° 0 mm 2 mps 718 mmHg 15%
    10:00 +36°C° 0 mm 2 mps 717 mmHg 12%
    11:00 +39°C° 0 mm 2 mps 717 mmHg 10%
    12:00 +41°C° 0 mm 2 mps 717 mmHg 8%
    13:00 +42°C° 0 mm 2 mps 716 mmHg 8%
    14:00 +42°C° 0 mm 2 mps 715 mmHg 7%
    15:00 +42°C° 0 mm 2 mps 715 mmHg 7%
    16:00 +39°C° 0 mm 2 mps 714 mmHg 9%
    17:00 +34°C° 0 mm 1 mps 714 mmHg 12%
    18:00 +31°C° 0 mm 1 mps 714 mmHg 14%
    19:00 +30°C° 0 mm 1 mps 714 mmHg 15%
    20:00 +29°C° 0 mm 1 mps 715 mmHg 16%
    21:00 +28°C° 0 mm 2 mps 715 mmHg 17%
    22:00 +27°C° 0 mm 2 mps 715 mmHg 17%
    23:00 +26°C° 0 mm 2 mps 716 mmHg 18%

    Tomorrow, 25 February, Saturday

    Time Temperature Precipitation Wind Pressure Humidity
    00:00 +25°C° 0 mm 2 mps 716 mmHg 19%
    01:00 +25°C° 0 mm 2 mps 715 mmHg 23%
    02:00 +24°C° 0 mm 1 mps 715 mmHg 28%
    03:00 +23°C° 0 mm 1 mps 715 mmHg 32%
    04:00 +22°C° 0 mm 1 mps 715 mmHg 42%
    05:00 +22°C° 0 mm 1 mps 716 mmHg 53%
    06:00 +21°C° 0 mm 1 mps 716 mmHg 63%
    07:00 +24°C° 0 mm 1 mps 717 mmHg 58%
    08:00 +28°C° 0 mm 1 mps 718 mmHg 54%
    09:00 +31°C° 0 mm 1 mps 718 mmHg 49%
    10:00 +35°C° 0 mm 1 mps 718 mmHg 39%
    11:00 +40°C° 0 mm 1 mps 718 mmHg 29%
    12:00 +40°C° 0 mm 0 mps 718 mmHg 18%
    13:00 +40°C° 0 mm 0 mps 717 mmHg 16%
    14:00 +43°C° 0 mm 1 mps 716 mmHg 15%
    15:00 +43°C° 0 mm 1 mps 715 mmHg 13%
    16:00 +40°C° 0 mm 1 mps 715 mmHg 16%
    17:00 +35°C° 0 mm 1 mps 714 mmHg 19%
    18:00 +32°C° 0 mm 1 mps 714 mmHg 22%
    19:00 +30°C° 0 mm 1 mps 714 mmHg 24%
    20:00 +29°C° 0 mm 1 mps 715 mmHg 26%
    21:00 +27°C° 0 mm 1 mps 715 mmHg 28%
    22:00 +27°C° 0 mm 1 mps 715 mmHg 26%
    23:00 +27°C° 0 mm 1 mps 716 mmHg 25%

    Day after tomorrow, 26 February, Sunday

    Time Temperature Precipitation Wind Pressure Humidity
    00:00 +26°C° 0 mm 1 mps 716 mmHg 24%
    01:00 +26°C° 0 mm 2 mps 715 mmHg 28%
    02:00 +25°C° 0 mm 2 mps 715 mmHg 31%
    03:00 +24°C° 0 mm 2 mps 715 mmHg 35%
    04:00 +24°C° 0 mm 1 mps 715 mmHg 46%
    05:00 +23°C° 0 mm 1 mps 716 mmHg 57%
    06:00 +22°C° 0 mm 1 mps 716 mmHg 68%
    07:00 +25°C° 0 mm 1 mps 717 mmHg 64%
    08:00 +28°C° 0 mm 2 mps 717 mmHg 60%
    09:00 +31°C° 0 mm 2 mps 718 mmHg 55%
    10:00 +35°C° 0 mm 1 mps 718 mmHg 43%
    11:00 +40°C° 0 mm 1 mps 717 mmHg 30%
    12:00 +41°C° 0 mm 0 mps 717 mmHg 17%
    13:00 +40°C° 0 mm 0 mps 716 mmHg 16%
    14:00 +43°C° 0 mm 1 mps 715 mmHg 14%
    15:00 +43°C° 0 mm 1 mps 714 mmHg 12%
    16:00 +39°C° 0 mm 1 mps 714 mmHg 15%
    17:00 +35°C° 0 mm 1 mps 713 mmHg 17%
    18:00 +31°C° 0 mm 1 mps 713 mmHg 20%
    19:00 +30°C° 0 mm 1 mps 714 mmHg 21%
    20:00 +29°C° 0 mm 1 mps 714 mmHg 22%
    21:00 +27°C° 0 mm 1 mps 715 mmHg 22%
    22:00 +27°C° 0 mm 1 mps 715 mmHg 24%
    23:00 +26°C° 0 mm 1 mps 715 mmHg 27%

    27 February, Monday

    Time Temperature Precipitation Wind Pressure Humidity
    00:00 +25°C° 0 mm 1 mps 715 mmHg 29%
    01:00 +25°C° 0 mm 1 mps 714 mmHg 35%
    02:00 +25°C° 0 mm 1 mps 714 mmHg 41%
    03:00 +24°C° 0 mm 2 mps 714 mmHg 47%
    04:00 +24°C° 0 mm 1 mps 714 mmHg 55%
    05:00 +23°C° 0 mm 1 mps 715 mmHg 62%
    06:00 +23°C° 0 mm 1 mps 715 mmHg 69%
    07:00 +26°C° 0 mm 2 mps 716 mmHg 65%
    08:00 +28°C° 0 mm 2 mps 716 mmHg 60%
    09:00 +30°C° 0 mm 2 mps 717 mmHg 55%
    10:00 +35°C° 0 mm 2 mps 717 mmHg 43%
    11:00 +39°C° 0 mm 1 mps 717 mmHg 30%
    12:00 +40°C° 0 mm 0 mps 716 mmHg 18%
    13:00 +43°C° 0 mm 1 mps 715 mmHg 16%
    14:00 +43°C° 0 mm 1 mps 714 mmHg 14%
    15:00 +42°C° 0 mm 1 mps 713 mmHg 12%
    16:00 +39°C° 0 mm 1 mps 713 mmHg 14%
    17:00 +34°C° 0 mm 1 mps 713 mmHg 17%
    18:00 +31°C° 0 mm 1 mps 712 mmHg 19%
    19:00 +29°C° 0 mm 1 mps 713 mmHg 20%
    20:00 +28°C° 0 mm 1 mps 713 mmHg 21%
    21:00 +26°C° 0 mm 1 mps 714 mmHg 23%
    22:00 +25°C° 0 mm 1 mps 714 mmHg 21%
    23:00 +25°C° 0 mm 1 mps 714 mmHg 20%

    28 February, Tuesday

    Time Temperature Precipitation Wind Pressure Humidity
    00:00 +24°C° 0 mm 1 mps 714 mmHg 19%
    01:00 +24°C° 0 mm 1 mps 714 mmHg 21%
    02:00 +24°C° 0 mm 1 mps 714 mmHg 23%
    03:00 +23°C° 0 mm 1 mps 713 mmHg 25%
    04:00 +23°C° 0 mm 2 mps 714 mmHg 34%
    05:00 +23°C° 0 mm 2 mps 714 mmHg 44%
    06:00 +23°C° 0 mm 2 mps 714 mmHg 54%
    07:00 +26°C° 0 mm 2 mps 715 mmHg 53%
    08:00 +28°C° 0 mm 2 mps 716 mmHg 51%
    09:00 +31°C° 0 mm 2 mps 716 mmHg 50%
    10:00 +36°C° 0 mm 2 mps 716 mmHg 39%
    11:00 +40°C° 0 mm 1 mps 716 mmHg 27%
    12:00 +43°C° 0 mm 1 mps 715 mmHg 15%
    13:00 +43°C° 0 mm 1 mps 715 mmHg 13%
    14:00 +44°C° 0 mm 1 mps 714 mmHg 12%
    15:00 +44°C° 0 mm 1 mps 713 mmHg 10%
    16:00 +40°C° 0 mm 1 mps 713 mmHg 13%
    17:00 +35°C° 0 mm 1 mps 713 mmHg 16%
    18:00 +32°C° 0 mm 1 mps 712 mmHg 18%
    19:00 +30°C° 0 mm 1 mps 713 mmHg 21%
    20:00 +28°C° 0 mm 1 mps 713 mmHg 23%
    21:00 +26°C° 0 mm 1 mps 714 mmHg 25%
    22:00 +26°C° 0 mm 1 mps 714 mmHg 26%
    23:00 +26°C° 0 mm 1 mps 714 mmHg 26%

    1 March, Wednesday

    Time Temperature Precipitation Wind Pressure Humidity
    00:00 +26°C° 0 mm 2 mps 714 mmHg 26%
    01:00 +26°C° 0 mm 2 mps 714 mmHg 34%
    02:00 +26°C° 0 mm 2 mps 714 mmHg 42%
    03:00 +26°C° 0 mm 2 mps 714 mmHg 49%
    04:00 +25°C° 0 mm 2 mps 715 mmHg 58%
    05:00 +25°C° 0 mm 2 mps 715 mmHg 67%
    06:00 +24°C° 0 mm 2 mps 715 mmHg 77%
    07:00 +26°C° 0 mm 2 mps 716 mmHg 70%
    08:00 +28°C° 0 mm 3 mps 716 mmHg 64%
    09:00 +30°C° 0 mm 3 mps 717 mmHg 58%
    10:00 +35°C° 0 mm 2 mps 717 mmHg 47%
    11:00 +38°C° 0 mm 2 mps 716 mmHg 36%
    12:00 +41°C° 0 mm 1 mps 716 mmHg 24%
    13:00 +42°C° 0 mm 1 mps 715 mmHg 21%
    14:00 +43°C° 0 mm 1 mps 715 mmHg 17%
    15:00 +44°C° 0 mm 1 mps 714 mmHg 13%
    16:00 +40°C° 0 mm 1 mps 714 mmHg 17%
    17:00 +36°C° 0 mm 1 mps 713 mmHg 20%
    18:00 +32°C° 0 mm 1 mps 713 mmHg 23%
    19:00 +31°C° 0 mm 1 mps 714 mmHg 26%
    20:00 +29°C° 0 mm 1 mps 714 mmHg 28%
    21:00 +28°C° 0 mm 1 mps 715 mmHg 30%
    22:00 +28°C° 0 mm 1 mps 715 mmHg 30%
    23:00 +28°C° 0 mm 1 mps 715 mmHg 31%
    Show more